INTELSAT 17 (IS-17) (37238 NORAD) Tracking and Keplerian Element Data

This shows tracking and keplerian element data for the satellite.

Feedback or suggestion? Click here.




ElementValue
Catalog37238
NameINTELSAT 17 (IS-17)
Epoch Orbit3960
Epoch Day269.87278352
Epoch Year2022
RAAN213.6275
Inclination0.0238
Eccentricity0.000268
Argument of Perigee338.4865
Mean Anonmoly193.7394
Mean Motion1.0027104
Decay Rate1E-08
L11 37238U 10065B 22269.87278352 .00000001 00000+0 00000+0 0 9997
L22 37238 0.0238 213.6275 0002680 338.4865 193.7394 1.00271040 39606

Live tracking and technical data element details for INTELSAT 17 (IS-17) (NORAD 37238). INTELSAT 17 (IS-17) can be tracked NOW for your location showing map with azimuth and elevation plus other details from your city location.

Track the satellite on the map from your city or location and see movement details for azimuth, elevation, latitude, longitude, range, height, and movement on the map or in text.







IsCatalogInMostPopularTable: catalog: 37238, numindb: 607
Update: records affected: 1



GetName: 37238 INTELSAT 17 (IS-17)

Hit Count: updated at: Thu, 29 Sep 2022 10:12:33 GMT